Location: Bois Neuf
(42.7667°N, 0.6333°E)
Time: 20:12:53
(UTC+00:00)

Meteor 1-27 - Pass Details

Date: 07 June 2020
Orbit: 836 x 894 km, 81.3° (Epoch: 09 July)

Event Time Altitude Azimuth Distance (km) Brightness Sun altitude
Rises 01:50:48 0° 346° (NNW) 3,397 8.1 -19.3°
Reaches altitude 10° 01:53:14 10° 343° (NNW) 2,460 7.2 -19.1°
Maximum altitude 01:58:42 62° 265° (W) 948 4.2 -18.6°
Enters shadow 02:01:16 32° 196° (SSW) 1,426 4.8 -18.4°
